Tracking 19283 objects as of 17-Nov-2018
HD Live streaming from Space Station
objects crossing your sky now

COSMOS 2168

Track COSMOS 2168 now!
10-day predictions
COSMOS 2168 is classified as:


NORAD ID: 21782
Int'l Code: 1991-077D
Perigee: 1,397.3 km
Apogee: 1,418.0 km
Inclination: 82.6 °
Period: 113.8 minutes
Semi major axis: 7778 km
RCS: 1.1161 m2 (large)
Launch date: November 12, 1991
Source: Commonwealth of Independent States (former USSR) (CIS)
Launch site: PLESETSK MISSILE AND SPACE COMPLEX (PKMTR)
aabbcc
Your satellite tracking list
Your tracking list is empty




NASA's NSSDC Master Catalog

Two Line Element Set (TLE):
1 21782U 91077D   18320.56645167 +.00000020 +00000-0 +48582-4 0  9991
2 21782 082.5975 186.1258 0013326 218.2334 189.6255 12.65457684247486
Source of the keplerian elements: AFSPC